START_TIME,STEP,MOV.,M34,t_acc.,L5,t_acc.,L18,t_acc.,L14,t_acc.
1981-08-26 18:00:25.560 ,0,0,0.,12.0,0.,12.0,0.,12.0,0.,12.0
1981-08-26 18:00:37.560 ,0,0,0.,12.0,0.,12.0,0.,12.0,0.,12.0
1981-08-26 18:00:49.560 ,1,1,0.,12.0,0.,12.0,0.,12.0,0.,12.0
1981-08-26 18:01:01.560 ,1,1,0.,12.0,0.,12.0,0.,12.0,0.,12.0
1981-08-26 18:01:13.560 ,1,0,0.,12.0,0.,12.0,0.,12.0,0.,12.0
1981-08-26 18:01:25.560 ,1,0,0.,12.0,0.,12.0,0.,12.0,0.,12.0
1981-08-26 18:01:37.560 ,2,1,0.,12.0,0.,12.0,0.,12.0,0.,12.0
1981-08-26 18:01:49.560 ,2,1,0.,12.0,0.,12.0,0.,12.0,0.,12.0
1981-08-26 18:02:01.560 ,2,0,0.,12.0,0.,12.0,0.,12.0,0.,12.0
1981-08-26 18:02:13.560 ,2,0,0.,12.0,0.,12.0,0.,12.0,0.,12.0
1981-08-26 18:02:25.560 ,3,1,0.,12.0,0.,12.0,0.,12.0,0.,12.0
1981-08-26 18:02:37.560 ,3,1,0.,12.0,0.,12.0,0.,12.0,0.,12.0
1981-08-26 18:02:49.560 ,3,0,0.,12.0,0.,12.0,0.,12.0,0.,12.0
1981-08-26 18:03:01.560 ,3,0,0.,12.0,0.,12.0,0.,12.0,0.,12.0
1981-08-26 18:03:13.560 ,4,1,0.,12.0,0.,12.0,0.,12.0,0.,12.0
1981-08-26 18:03:25.560 ,4,1,0.,12.0,0.,12.0,0.,12.0,0.,12.0
1981-08-26 18:03:37.560 ,4,0,0.,12.0,0.,12.0,0.,12.0,0.,12.0
1981-08-26 18:03:49.560 ,4,0,0.,12.0,0.,12.0,0.,12.0,0.,12.0
1981-08-26 18:04:01.560 ,5,1,0.,12.0,0.,12.0,0.,12.0,0.,12.0
1981-08-26 18:04:13.560 ,5,1,0.,12.0,0.,12.0,0.,12.0,0.,12.0
1981-08-26 18:04:25.560 ,5,0,0.,12.0,0.,12.0,0.,12.0,0.,12.0
1981-08-26 18:04:37.560 ,5,0,0.,12.0,0.,12.0,0.,12.0,0.,12.0
1981-08-26 18:04:49.560 ,6,1,0.,12.0,0.,12.0,0.,12.0,0.,12.0
1981-08-26 18:05:01.560 ,6,1,0.,12.0,0.,12.0,0.,12.0,0.,12.0
1981-08-26 18:05:13.560 ,6,0,0.,12.0,0.,12.0,0.,12.0,0.,12.0
1981-08-26 18:05:25.560 ,6,0,0.,12.0,0.,12.0,0.,12.0,0.,12.0
1981-08-26 18:05:37.560 ,7,1,0.,12.0,0.,12.0,0.,12.0,0.,12.0
1981-08-26 18:05:49.560 ,7,1,0.,12.0,0.,12.0,0.,12.0,0.,12.0
1981-08-26 18:06:01.560 ,7,0,0.,12.0,0.,12.0,0.,12.0,0.,12.0
1981-08-26 18:06:13.560 ,7,0,0.,12.0,0.,12.0,0.,12.0,0.,12.0
1981-08-26 18:06:25.560 ,7,1,0.,12.0,0.,12.0,0.,12.0,0.,12.0
1981-08-26 18:06:37.560 ,7,1,0.,12.0,0.,12.0,0.,12.0,0.,12.0
1981-08-26 18:06:49.560 ,7,0,0.,12.0,0.,12.0,0.,12.0,0.,12.0
1981-08-26 18:07:01.560 ,7,0,0.,12.0,0.,12.0,0.,12.0,0.,12.0
1981-08-26 18:07:13.560 ,6,1,0.,12.0,0.,12.0,0.,12.0,0.,12.0
1981-08-26 18:07:25.560 ,6,1,0.,12.0,0.,12.0,0.,12.0,0.,12.0
1981-08-26 18:07:37.560 ,6,0,0.,12.0,0.,12.0,0.,12.0,0.,12.0
1981-08-26 18:07:49.560 ,6,0,0.,12.0,0.,12.0,0.,12.0,0.,12.0
1981-08-26 18:08:01.560 ,5,1,0.,12.0,0.,12.0,0.,12.0,0.,12.0
1981-08-26 18:08:13.560 ,5,1,0.,12.0,0.,12.0,0.,12.0,0.,12.0
1981-08-26 18:08:25.560 ,5,0,0.,12.0,0.,12.0,0.,12.0,0.,12.0
1981-08-26 18:08:37.560 ,5,0,0.,12.0,0.,12.0,0.,12.0,0.,12.0
1981-08-26 18:08:49.560 ,4,1,0.,12.0,0.,12.0,0.,12.0,0.,12.0
1981-08-26 18:09:01.560 ,4,1,0.,12.0,0.,12.0,0.,12.0,0.,12.0
1981-08-26 18:09:13.560 ,4,0,0.,12.0,0.,12.0,0.,12.0,0.,12.0
1981-08-26 18:09:25.560 ,4,0,0.,12.0,0.,12.0,0.,12.0,0.,12.0
1981-08-26 18:09:37.560 ,3,1,0.,12.0,0.,12.0,0.,12.0,0.,12.0
1981-08-26 18:09:49.560 ,3,1,0.,12.0,0.,12.0,0.,12.0,0.,12.0
1981-08-26 18:10:01.560 ,3,0,0.,12.0,0.,12.0,0.,12.0,0.,12.0
1981-08-26 18:10:13.560 ,3,0,0.,12.0,0.,12.0,0.,12.0,0.,12.0
1981-08-26 18:10:25.560 ,2,1,0.,12.0,0.,12.0,0.,12.0,0.,12.0
1981-08-26 18:10:37.560 ,2,1,0.,12.0,0.,12.0,0.,12.0,0.,12.0
1981-08-26 18:10:49.560 ,0,0,0.,12.0,0.,12.0,0.,12.0,0.,12.0
1981-08-26 18:11:01.560 ,0,0,0.,12.0,0.,12.0,0.,12.0,0.,12.0
1981-08-26 18:14:34.560 ,0,0,,0,,0,,0,,0
1981-08-26 18:14:46.560 ,0,0,0.,12.0,0.,12.0,0.,12.0,0.,12.0
1981-08-26 18:14:49.560 ,0,0,,0,,0,,0,,0
1981-08-26 18:15:01.560 ,0,0,0.,12.0,0.,12.0,0.,12.0,0.,12.0
1981-08-26 18:15:13.560 ,3,1,0.,12.0,0.,12.0,0.,12.0,0.,12.0
1981-08-26 18:15:25.560 ,3,1,0.,12.0,0.,12.0,0.,12.0,0.,12.0
1981-08-26 18:15:37.560 ,3,0,0.,12.0,0.,12.0,0.,12.0,0.,12.0
1981-08-26 18:15:49.560 ,3,0,0.,12.0,0.,12.0,0.,12.0,0.,12.0
1981-08-26 18:16:01.560 ,0,0,0.,12.0,0.,12.0,0.,12.0,0.,12.0
1981-08-26 18:16:13.560 ,0,0,0.,12.0,0.,12.0,0.,12.0,0.,12.0
1981-08-26 18:16:25.560 ,0,0,0.,12.0,0.,12.0,0.,12.0,0.,12.0
1981-08-26 18:16:37.560 ,0,0,0.,12.0,0.,12.0,0.,12.0,0.,12.0
1981-08-26 18:16:49.560 ,5,1,0.,12.0,0.,12.0,0.,12.0,0.,12.0
1981-08-26 18:17:01.560 ,5,1,0.,12.0,0.,12.0,0.,12.0,0.,12.0
1981-08-26 18:17:13.560 ,5,0,0.,12.0,0.,12.0,0.,12.0,0.,12.0
1981-08-26 18:17:25.560 ,5,0,0.,12.0,0.,12.0,0.,12.0,0.,12.0
1981-08-26 18:17:37.560 ,6,1,0.,12.0,0.,12.0,0.,12.0,0.,12.0
1981-08-26 18:17:49.560 ,6,1,0.,12.0,0.,12.0,0.,12.0,0.,12.0
1981-08-26 18:18:01.560 ,6,0,0.,12.0,0.,12.0,0.,12.0,0.,12.0
1981-08-26 18:18:13.560 ,6,0,0.,12.0,0.,12.0,0.,12.0,0.,12.0
1981-08-26 18:19:13.560 ,0,0,0.,12.0,0.,12.0,0.,12.0,0.,12.0
1981-08-26 18:19:25.560 ,0,0,0.,12.0,0.,12.0,0.,12.0,0.,12.0
1981-08-26 18:19:37.560 ,0,0,0.,12.0,0.,12.0,0.,12.0,0.,12.0
1981-08-26 18:19:49.560 ,0,0,0.,12.0,0.,12.0,0.,12.0,0.,12.0
1981-08-26 18:20:01.560 ,6,1,0.,12.0,0.,12.0,0.,12.0,0.,12.0
1981-08-26 18:20:13.560 ,6,1,0.,12.0,0.,12.0,0.,12.0,0.,12.0
1981-08-26 18:20:25.560 ,6,0,0.,12.0,0.,12.0,0.,12.0,0.,12.0
1981-08-26 18:20:37.560 ,6,0,0.,12.0,0.,12.0,0.,12.0,0.,12.0
1981-08-26 18:20:49.560 ,5,1,0.,12.0,0.,12.0,0.,12.0,0.,12.0
1981-08-26 18:21:01.560 ,5,1,0.,12.0,0.,12.0,0.,12.0,0.,12.0
1981-08-26 18:21:13.560 ,5,0,0.,12.0,0.,12.0,0.,12.0,0.,12.0
1981-08-26 18:21:25.560 ,5,0,0.,12.0,0.,12.0,0.,12.0,0.,12.0
1981-08-26 18:21:37.560 ,4,1,0.,12.0,0.,12.0,0.,12.0,0.,12.0
1981-08-26 18:21:49.560 ,4,1,0.,12.0,0.,12.0,0.,12.0,0.,12.0
1981-08-26 18:22:01.560 ,4,0,0.,12.0,0.,12.0,0.,12.0,0.,12.0
1981-08-26 18:22:13.560 ,4,0,0.,12.0,0.,12.0,0.,12.0,0.,12.0
1981-08-26 18:22:25.560 ,3,1,0.,12.0,0.,12.0,0.,12.0,0.,12.0
1981-08-26 18:22:37.560 ,3,1,0.,12.0,0.,12.0,0.,12.0,0.,12.0
1981-08-26 18:22:49.560 ,3,0,0.,12.0,0.,12.0,0.,12.0,0.,12.0
1981-08-26 18:23:01.560 ,3,0,0.,12.0,0.,12.0,0.,12.0,0.,12.0
1981-08-26 18:23:13.560 ,2,1,0.,12.0,0.,12.0,0.,12.0,0.,12.0
1981-08-26 18:23:25.560 ,2,1,0.,12.0,0.,12.0,0.,12.0,0.,12.0
1981-08-26 18:23:37.560 ,2,0,0.,12.0,0.,12.0,0.,12.0,0.,12.0
1981-08-26 18:23:49.560 ,2,0,0.,12.0,0.,12.0,0.,12.0,0.,12.0
1981-08-26 18:24:01.560 ,1,1,0.,12.0,0.,12.0,0.,12.0,0.,12.0
1981-08-26 18:24:13.560 ,1,1,0.,12.0,0.,12.0,0.,12.0,0.,12.0
1981-08-26 18:24:25.560 ,1,0,0.,12.0,0.,12.0,0.,12.0,0.,12.0
1981-08-26 18:24:37.560 ,1,0,0.,12.0,0.,12.0,0.,12.0,0.,12.0
1981-08-26 18:24:49.560 ,0,1,0.,12.0,0.,12.0,0.,12.0,0.,12.0
1981-08-26 18:25:01.560 ,0,1,0.,12.0,0.,12.0,0.,12.0,0.,12.0
1981-08-26 18:25:13.560 ,0,0,0.,12.0,0.,12.0,0.,12.0,0.,12.0
1981-08-26 18:25:25.560 ,0,0,0.,12.0,0.,12.0,0.,12.0,0.,12.0
1981-08-26 18:25:37.560 ,0,1,0.,12.0,0.,12.0,0.,12.0,0.,12.0
1981-08-26 18:25:49.560 ,0,1,0.,12.0,0.,12.0,0.,12.0,0.,12.0
1981-08-26 18:26:01.560 ,0,0,0.,12.0,0.,12.0,0.,12.0,0.,12.0
1981-08-26 18:26:13.560 ,0,0,0.,12.0,0.,12.0,0.,12.0,0.,12.0
1981-08-26 18:26:25.560 ,1,1,0.,12.0,0.,12.0,0.,12.0,0.,12.0
1981-08-26 18:26:37.560 ,1,1,0.,12.0,0.,12.0,0.,12.0,0.,12.0
1981-08-26 18:26:49.560 ,1,0,0.,12.0,0.,12.0,0.,12.0,0.,12.0
1981-08-26 18:27:01.560 ,1,0,0.,12.0,0.,12.0,0.,12.0,0.,12.0
1981-08-26 18:27:13.560 ,2,1,0.,12.0,0.,12.0,0.,12.0,0.,12.0
1981-08-26 18:27:25.560 ,2,1,0.,12.0,1.,12.0,0.,12.0,0.,12.0
1981-08-26 18:27:37.560 ,2,0,0.,12.0,0.,12.0,0.,12.0,0.,12.0
1981-08-26 18:27:49.560 ,2,0,0.,12.0,0.,12.0,0.,12.0,0.,12.0
1981-08-26 18:28:01.560 ,3,1,0.,12.0,0.,12.0,0.,12.0,0.,12.0
1981-08-26 18:28:13.560 ,3,1,0.,12.0,0.,12.0,0.,12.0,0.,12.0
1981-08-26 18:28:25.560 ,3,0,0.,12.0,0.,12.0,0.,12.0,0.,12.0
1981-08-26 18:28:37.560 ,3,0,0.,12.0,0.,12.0,0.,12.0,0.,12.0
1981-08-26 18:28:49.560 ,4,1,0.,12.0,0.,12.0,0.,12.0,0.,12.0
1981-08-26 18:29:01.560 ,4,1,0.,12.0,0.,12.0,0.,12.0,0.,12.0
1981-08-26 18:29:13.560 ,4,0,0.,12.0,0.,12.0,0.,12.0,0.,12.0
1981-08-26 18:29:25.560 ,4,0,0.,12.0,0.,12.0,0.,12.0,0.,12.0
1981-08-26 18:29:37.560 ,5,1,0.,12.0,0.,12.0,0.,12.0,0.,12.0
1981-08-26 18:29:49.560 ,5,1,0.,12.0,0.,12.0,0.,12.0,0.,12.0
1981-08-26 18:30:01.560 ,5,0,0.,12.0,0.,12.0,0.,12.0,0.,12.0
1981-08-26 18:30:13.560 ,5,0,0.,12.0,0.,12.0,0.,12.0,0.,12.0
1981-08-26 18:30:25.560 ,6,1,0.,12.0,0.,12.0,0.,12.0,0.,12.0
1981-08-26 18:30:37.560 ,6,1,0.,12.0,0.,12.0,0.,12.0,0.,12.0
1981-08-26 18:30:49.560 ,6,0,0.,12.0,0.,12.0,0.,12.0,0.,12.0
1981-08-26 18:31:01.560 ,6,0,0.,12.0,0.,12.0,0.,12.0,0.,12.0
1981-08-26 18:31:13.560 ,7,1,0.,12.0,0.,12.0,0.,12.0,0.,12.0
1981-08-26 18:31:25.560 ,7,1,0.,12.0,0.,12.0,0.,12.0,0.,12.0
1981-08-26 18:31:37.560 ,7,0,0.,12.0,0.,12.0,0.,12.0,0.,12.0
1981-08-26 18:31:49.560 ,7,0,0.,12.0,0.,12.0,0.,12.0,0.,12.0
1981-08-26 18:32:01.560 ,7,1,0.,12.0,0.,12.0,0.,12.0,0.,12.0
1981-08-26 18:32:13.560 ,7,1,0.,12.0,0.,12.0,0.,12.0,0.,12.0
1981-08-26 18:32:25.560 ,7,0,0.,12.0,0.,12.0,0.,12.0,0.,12.0
1981-08-26 18:32:37.560 ,7,0,0.,12.0,0.,12.0,0.,12.0,0.,12.0
1981-08-26 18:32:49.560 ,6,1,0.,12.0,0.,12.0,0.,12.0,0.,12.0
1981-08-26 18:33:01.560 ,6,1,0.,12.0,0.,12.0,0.,12.0,0.,12.0
1981-08-26 18:33:13.560 ,6,0,0.,12.0,0.,12.0,0.,12.0,0.,12.0
1981-08-26 18:33:25.560 ,6,0,0.,12.0,0.,12.0,0.,12.0,0.,12.0
1981-08-26 18:33:37.560 ,5,1,0.,12.0,0.,12.0,0.,12.0,0.,12.0
1981-08-26 18:33:49.560 ,5,1,0.,12.0,0.,12.0,0.,12.0,0.,12.0
1981-08-26 18:34:01.560 ,5,0,0.,12.0,0.,12.0,0.,12.0,0.,12.0
1981-08-26 18:34:13.560 ,5,0,0.,12.0,0.,12.0,0.,12.0,0.,12.0
1981-08-26 18:34:25.560 ,4,1,0.,12.0,0.,12.0,0.,12.0,0.,12.0
1981-08-26 18:34:37.560 ,4,1,0.,12.0,0.,12.0,0.,12.0,0.,12.0
1981-08-26 18:34:49.560 ,4,0,0.,12.0,0.,12.0,0.,12.0,0.,12.0
1981-08-26 18:35:01.560 ,4,0,0.,12.0,0.,12.0,0.,12.0,0.,12.0
1981-08-26 18:35:13.560 ,3,1,0.,12.0,0.,12.0,0.,12.0,0.,12.0
1981-08-26 18:35:25.560 ,3,1,0.,12.0,0.,12.0,0.,12.0,0.,12.0
1981-08-26 18:35:37.560 ,3,0,0.,12.0,0.,12.0,0.,12.0,0.,12.0
1981-08-26 18:35:49.560 ,3,0,0.,12.0,0.,12.0,0.,12.0,0.,12.0
1981-08-26 18:36:01.560 ,2,1,0.,12.0,0.,12.0,0.,12.0,0.,12.0
1981-08-26 18:36:13.560 ,2,1,0.,12.0,0.,12.0,0.,12.0,0.,12.0
1981-08-26 18:36:25.560 ,2,0,0.,12.0,0.,12.0,0.,12.0,0.,12.0
1981-08-26 18:36:37.560 ,2,0,0.,12.0,0.,12.0,0.,12.0,0.,12.0
1981-08-26 18:36:49.560 ,1,1,0.,12.0,0.,12.0,0.,12.0,0.,12.0
1981-08-26 18:37:01.560 ,1,1,0.,12.0,0.,12.0,0.,12.0,0.,12.0
1981-08-26 18:37:13.560 ,1,0,0.,12.0,0.,12.0,0.,12.0,0.,12.0
1981-08-26 18:37:25.560 ,1,0,0.,12.0,0.,12.0,0.,12.0,0.,12.0
1981-08-26 18:37:37.560 ,0,1,0.,12.0,0.,12.0,0.,12.0,0.,12.0
1981-08-26 18:37:49.560 ,0,1,0.,12.0,0.,12.0,0.,12.0,0.,12.0
1981-08-26 18:38:01.560 ,0,0,0.,12.0,0.,12.0,0.,12.0,0.,12.0
1981-08-26 18:38:13.560 ,0,0,0.,12.0,0.,12.0,0.,12.0,0.,12.0
1981-08-26 18:38:25.560 ,0,1,0.,12.0,0.,12.0,0.,12.0,0.,12.0
1981-08-26 18:38:37.560 ,0,1,0.,12.0,0.,12.0,0.,12.0,0.,12.0
1981-08-26 18:38:49.560 ,0,0,0.,12.0,0.,12.0,0.,12.0,0.,12.0
1981-08-26 18:39:01.560 ,0,0,0.,12.0,0.,12.0,0.,12.0,0.,12.0
1981-08-26 18:39:13.560 ,1,1,0.,12.0,0.,12.0,0.,12.0,0.,12.0
1981-08-26 18:39:25.560 ,1,1,0.,12.0,0.,12.0,0.,12.0,0.,12.0
1981-08-26 18:39:37.560 ,1,1,,0,,0,,0,,0
1981-08-26 18:39:49.560 ,1,1,,0,,0,,0,,0
1981-08-26 18:39:37.560 ,0,0,0.,12.0,0.,12.0,0.,12.0,0.,12.0
1981-08-26 18:39:49.560 ,0,0,0.,12.0,0.,12.0,0.,12.0,0.,12.0
1981-08-26 18:40:01.560 ,2,1,0.,12.0,0.,12.0,0.,12.0,0.,12.0
1981-08-26 18:40:13.560 ,2,1,0.,12.0,0.,12.0,0.,12.0,0.,12.0
1981-08-26 18:40:25.560 ,2,0,0.,12.0,0.,12.0,0.,12.0,0.,12.0
1981-08-26 18:40:37.560 ,2,0,0.,12.0,0.,12.0,0.,12.0,0.,12.0
1981-08-26 18:40:49.560 ,3,1,0.,12.0,0.,12.0,0.,12.0,0.,12.0
1981-08-26 18:41:01.560 ,3,1,0.,12.0,0.,12.0,0.,12.0,0.,12.0
1981-08-26 18:41:13.560 ,3,0,0.,12.0,0.,12.0,0.,12.0,0.,12.0
1981-08-26 18:41:25.560 ,3,0,0.,12.0,0.,12.0,0.,12.0,0.,12.0
1981-08-26 18:41:37.560 ,4,1,0.,12.0,0.,12.0,0.,12.0,0.,12.0
1981-08-26 18:41:49.560 ,4,1,0.,12.0,0.,12.0,0.,12.0,0.,12.0
1981-08-26 18:42:01.560 ,4,0,0.,12.0,0.,12.0,0.,12.0,0.,12.0
1981-08-26 18:42:13.560 ,4,0,0.,12.0,0.,12.0,0.,12.0,0.,12.0
1981-08-26 18:42:25.560 ,5,1,0.,12.0,0.,12.0,0.,12.0,0.,12.0
1981-08-26 18:42:37.560 ,5,1,0.,12.0,0.,12.0,0.,12.0,0.,12.0
1981-08-26 18:42:49.560 ,5,0,0.,12.0,0.,12.0,0.,12.0,0.,12.0
1981-08-26 18:43:01.560 ,5,0,0.,12.0,0.,12.0,0.,12.0,0.,12.0
1981-08-26 18:43:13.560 ,6,1,0.,12.0,0.,12.0,0.,12.0,0.,12.0
1981-08-26 18:43:25.560 ,6,1,0.,12.0,0.,12.0,0.,12.0,0.,12.0
1981-08-26 18:43:37.560 ,6,0,0.,12.0,0.,12.0,0.,12.0,0.,12.0
1981-08-26 18:43:49.560 ,6,0,0.,12.0,0.,12.0,0.,12.0,0.,12.0
1981-08-26 18:44:01.560 ,7,1,0.,12.0,0.,12.0,0.,12.0,0.,12.0
1981-08-26 18:44:13.560 ,7,1,0.,12.0,0.,12.0,0.,12.0,0.,12.0
1981-08-26 18:44:25.560 ,7,0,0.,12.0,0.,12.0,0.,12.0,0.,12.0
1981-08-26 18:44:37.560 ,7,0,0.,12.0,0.,12.0,0.,12.0,0.,12.0
1981-08-26 18:44:49.560 ,7,1,0.,12.0,0.,12.0,0.,12.0,0.,12.0
1981-08-26 18:45:01.560 ,7,1,0.,12.0,0.,12.0,0.,12.0,0.,12.0
1981-08-26 18:45:13.560 ,7,0,0.,12.0,0.,12.0,0.,12.0,0.,12.0
1981-08-26 18:45:25.560 ,7,0,0.,12.0,0.,12.0,0.,12.0,0.,12.0
1981-08-26 18:45:37.560 ,6,1,0.,12.0,0.,12.0,0.,12.0,0.,12.0
1981-08-26 18:45:49.560 ,6,1,0.,12.0,0.,12.0,0.,12.0,0.,12.0
1981-08-26 18:46:01.560 ,6,0,0.,12.0,0.,12.0,0.,12.0,0.,12.0
1981-08-26 18:46:13.560 ,6,0,0.,12.0,0.,12.0,0.,12.0,0.,12.0
1981-08-26 18:46:25.560 ,5,1,0.,12.0,0.,12.0,0.,12.0,0.,12.0
1981-08-26 18:46:37.560 ,5,1,0.,12.0,0.,12.0,0.,12.0,0.,12.0
1981-08-26 18:46:49.560 ,5,0,0.,12.0,0.,12.0,0.,12.0,0.,12.0
1981-08-26 18:47:01.560 ,5,0,0.,12.0,0.,12.0,0.,12.0,0.,12.0
1981-08-26 18:47:13.560 ,4,1,0.,12.0,0.,12.0,0.,12.0,0.,12.0
1981-08-26 18:47:25.560 ,4,1,0.,12.0,0.,12.0,0.,12.0,0.,12.0
1981-08-26 18:47:37.560 ,4,0,0.,12.0,0.,12.0,0.,12.0,0.,12.0
1981-08-26 18:47:49.560 ,4,0,0.,12.0,0.,12.0,0.,12.0,0.,12.0
1981-08-26 18:48:01.560 ,3,1,0.,12.0,0.,12.0,0.,12.0,0.,12.0
1981-08-26 18:48:13.560 ,3,1,0.,12.0,0.,12.0,0.,12.0,0.,12.0
1981-08-26 18:48:25.560 ,3,0,0.,12.0,0.,12.0,0.,12.0,0.,12.0
1981-08-26 18:48:37.560 ,3,0,0.,12.0,0.,12.0,0.,12.0,0.,12.0
1981-08-26 18:48:49.560 ,2,1,0.,12.0,0.,12.0,0.,12.0,0.,12.0
1981-08-26 18:49:01.560 ,2,1,0.,12.0,0.,12.0,0.,12.0,0.,12.0
1981-08-26 18:49:13.560 ,2,0,0.,12.0,0.,12.0,0.,12.0,0.,12.0
1981-08-26 18:49:25.560 ,2,0,0.,12.0,0.,12.0,0.,12.0,0.,12.0
1981-08-26 18:49:37.560 ,1,1,0.,12.0,0.,12.0,0.,12.0,0.,12.0
1981-08-26 18:49:49.560 ,1,1,0.,12.0,0.,12.0,0.,12.0,0.,12.0
1981-08-26 18:50:01.560 ,1,0,0.,12.0,0.,12.0,0.,12.0,0.,12.0
1981-08-26 18:50:13.560 ,1,0,0.,12.0,0.,12.0,0.,12.0,0.,12.0
1981-08-26 18:50:25.560 ,0,1,0.,12.0,0.,12.0,0.,12.0,0.,12.0
1981-08-26 18:50:37.560 ,0,1,0.,12.0,0.,12.0,0.,12.0,0.,12.0
1981-08-26 18:50:49.560 ,0,0,0.,12.0,0.,12.0,0.,12.0,0.,12.0
1981-08-26 18:51:01.560 ,0,0,0.,12.0,0.,12.0,0.,12.0,0.,12.0
1981-08-26 18:51:13.560 ,0,1,0.,12.0,0.,12.0,0.,12.0,0.,12.0
1981-08-26 18:51:25.560 ,0,1,0.,12.0,0.,12.0,0.,12.0,0.,12.0
1981-08-26 18:51:37.560 ,0,0,0.,12.0,0.,12.0,0.,12.0,0.,12.0
1981-08-26 18:51:49.560 ,0,0,0.,12.0,0.,12.0,0.,12.0,0.,12.0
1981-08-26 18:52:01.560 ,1,1,0.,12.0,0.,12.0,0.,12.0,0.,12.0
1981-08-26 18:52:13.560 ,1,1,0.,12.0,0.,12.0,0.,12.0,0.,12.0
1981-08-26 18:52:25.560 ,1,0,0.,12.0,0.,12.0,0.,12.0,0.,12.0
1981-08-26 18:52:37.560 ,1,0,0.,12.0,0.,12.0,0.,12.0,0.,12.0
1981-08-26 18:52:49.560 ,2,1,0.,12.0,0.,12.0,0.,12.0,0.,12.0
1981-08-26 18:53:01.560 ,2,1,0.,12.0,0.,12.0,0.,12.0,0.,12.0
1981-08-26 18:53:13.560 ,2,0,0.,12.0,0.,12.0,0.,12.0,0.,12.0
1981-08-26 18:53:25.560 ,2,0,0.,12.0,0.,12.0,0.,12.0,0.,12.0
1981-08-26 18:53:37.560 ,3,1,0.,12.0,0.,12.0,0.,12.0,0.,12.0
1981-08-26 18:53:49.560 ,3,1,0.,12.0,0.,12.0,0.,12.0,0.,12.0
1981-08-26 18:54:01.560 ,3,0,0.,12.0,0.,12.0,0.,12.0,0.,12.0
1981-08-26 18:54:13.560 ,3,0,0.,12.0,0.,12.0,0.,12.0,0.,12.0
1981-08-26 18:54:25.560 ,4,1,0.,12.0,0.,12.0,0.,12.0,0.,12.0
1981-08-26 18:54:37.560 ,4,1,0.,12.0,0.,12.0,0.,12.0,0.,12.0
1981-08-26 18:54:49.560 ,4,0,0.,12.0,0.,12.0,0.,12.0,0.,12.0
1981-08-26 18:55:01.560 ,4,0,0.,12.0,0.,12.0,0.,12.0,0.,12.0
1981-08-26 18:55:13.560 ,5,1,0.,12.0,0.,12.0,0.,12.0,0.,12.0
1981-08-26 18:55:25.560 ,5,1,0.,12.0,0.,12.0,0.,12.0,0.,12.0
1981-08-26 18:55:37.560 ,5,0,0.,12.0,0.,12.0,0.,12.0,0.,12.0
1981-08-26 18:55:49.560 ,5,0,0.,12.0,0.,12.0,0.,12.0,0.,12.0
1981-08-26 18:56:01.560 ,6,1,0.,12.0,0.,12.0,0.,12.0,0.,12.0
1981-08-26 18:56:13.560 ,6,1,0.,12.0,0.,12.0,0.,12.0,0.,12.0
1981-08-26 18:56:25.560 ,6,0,0.,12.0,0.,12.0,0.,12.0,0.,12.0
1981-08-26 18:56:37.560 ,6,0,0.,12.0,0.,12.0,0.,12.0,0.,12.0
1981-08-26 18:56:49.560 ,7,1,0.,12.0,0.,12.0,0.,12.0,0.,12.0
1981-08-26 18:57:01.560 ,7,1,0.,12.0,0.,12.0,0.,12.0,0.,12.0
1981-08-26 18:57:13.560 ,7,0,0.,12.0,0.,12.0,0.,12.0,0.,12.0
1981-08-26 18:57:25.560 ,7,0,0.,12.0,0.,12.0,0.,12.0,0.,12.0
1981-08-26 18:57:37.560 ,7,1,0.,12.0,0.,12.0,0.,12.0,0.,12.0
1981-08-26 18:57:49.560 ,7,1,0.,12.0,0.,12.0,0.,12.0,0.,12.0
1981-08-26 18:58:01.560 ,7,0,0.,12.0,0.,12.0,0.,12.0,0.,12.0
1981-08-26 18:58:13.560 ,7,0,0.,12.0,0.,12.0,0.,12.0,0.,12.0
1981-08-26 18:58:25.560 ,6,1,0.,12.0,0.,12.0,0.,12.0,0.,12.0
1981-08-26 18:58:37.560 ,6,1,0.,12.0,0.,12.0,0.,12.0,0.,12.0
1981-08-26 18:58:49.560 ,6,0,0.,12.0,0.,12.0,0.,12.0,0.,12.0
1981-08-26 18:59:01.560 ,6,0,0.,12.0,0.,12.0,0.,12.0,0.,12.0
1981-08-26 18:59:13.560 ,5,1,0.,12.0,0.,12.0,0.,12.0,0.,12.0
1981-08-26 18:59:25.560 ,5,1,0.,12.0,0.,12.0,0.,12.0,0.,12.0
1981-08-26 18:59:37.560 ,5,0,0.,12.0,0.,12.0,0.,12.0,0.,12.0
1981-08-26 18:59:49.560 ,5,0,0.,12.0,0.,12.0,0.,12.0,0.,12.0
1981-08-26 19:00:01.560 ,4,1,0.,12.0,0.,12.0,0.,12.0,0.,12.0
1981-08-26 19:00:13.560 ,4,1,0.,12.0,0.,12.0,0.,12.0,0.,12.0
1981-08-26 19:00:25.560 ,4,0,0.,12.0,0.,12.0,0.,12.0,0.,12.0
1981-08-26 19:00:37.560 ,4,0,0.,12.0,0.,12.0,0.,12.0,0.,12.0
1981-08-26 19:00:49.560 ,3,1,0.,12.0,0.,12.0,0.,12.0,0.,12.0
1981-08-26 19:01:01.560 ,3,1,0.,12.0,0.,12.0,0.,12.0,0.,12.0
1981-08-26 19:01:13.560 ,3,0,0.,12.0,0.,12.0,0.,12.0,0.,12.0
1981-08-26 19:01:25.560 ,3,0,0.,12.0,0.,12.0,0.,12.0,0.,12.0
1981-08-26 19:01:37.560 ,2,1,0.,12.0,0.,12.0,0.,12.0,0.,12.0
1981-08-26 19:01:49.560 ,2,1,0.,12.0,0.,12.0,0.,12.0,0.,12.0
1981-08-26 19:02:01.560 ,2,0,0.,12.0,0.,12.0,0.,12.0,0.,12.0
1981-08-26 19:02:13.560 ,2,0,0.,12.0,0.,12.0,0.,12.0,0.,12.0
1981-08-26 19:02:25.560 ,1,1,0.,12.0,0.,12.0,0.,12.0,0.,12.0
1981-08-26 19:02:37.560 ,1,1,0.,12.0,0.,12.0,0.,12.0,0.,12.0
1981-08-26 19:02:49.560 ,1,0,0.,12.0,0.,12.0,0.,12.0,0.,12.0
1981-08-26 19:03:01.560 ,1,0,0.,12.0,0.,12.0,0.,12.0,0.,12.0
1981-08-26 19:03:13.560 ,0,1,0.,12.0,0.,12.0,0.,12.0,0.,12.0
1981-08-26 19:03:25.560 ,0,1,0.,12.0,0.,12.0,0.,12.0,0.,12.0
1981-08-26 19:03:37.560 ,0,0,0.,12.0,0.,12.0,0.,12.0,0.,12.0
1981-08-26 19:03:49.560 ,0,0,0.,12.0,0.,12.0,0.,12.0,0.,12.0
1981-08-26 19:04:01.560 ,0,1,0.,12.0,0.,12.0,0.,12.0,0.,12.0
1981-08-26 19:04:13.560 ,0,1,0.,12.0,0.,12.0,0.,12.0,0.,12.0
1981-08-26 19:04:25.560 ,0,0,0.,12.0,0.,12.0,0.,12.0,0.,12.0
1981-08-26 19:04:37.560 ,0,0,0.,12.0,0.,12.0,0.,12.0,0.,12.0
1981-08-26 19:04:49.560 ,1,1,0.,12.0,0.,12.0,0.,12.0,0.,12.0
1981-08-26 19:05:01.560 ,1,1,0.,12.0,0.,12.0,0.,12.0,0.,12.0
1981-08-26 19:05:13.560 ,1,0,0.,12.0,0.,12.0,0.,12.0,0.,12.0
1981-08-26 19:05:25.560 ,1,0,0.,12.0,0.,12.0,0.,12.0,0.,12.0
1981-08-26 19:05:37.560 ,2,1,0.,12.0,0.,12.0,0.,12.0,0.,12.0
1981-08-26 19:05:49.560 ,2,1,0.,12.0,0.,12.0,0.,12.0,0.,12.0
1981-08-26 19:06:01.560 ,2,0,0.,12.0,0.,12.0,0.,12.0,0.,12.0
1981-08-26 19:06:13.560 ,2,0,0.,12.0,0.,12.0,0.,12.0,0.,12.0
1981-08-26 19:06:25.560 ,3,1,0.,12.0,0.,12.0,0.,12.0,0.,12.0
1981-08-26 19:06:37.560 ,3,1,0.,12.0,0.,12.0,0.,12.0,0.,12.0
1981-08-26 19:06:49.560 ,3,0,0.,12.0,0.,12.0,0.,12.0,0.,12.0
1981-08-26 19:07:01.560 ,3,0,0.,12.0,0.,12.0,0.,12.0,0.,12.0
1981-08-26 19:07:13.560 ,4,1,0.,12.0,0.,12.0,0.,12.0,0.,12.0
1981-08-26 19:07:25.560 ,4,1,0.,12.0,0.,12.0,0.,12.0,0.,12.0
1981-08-26 19:07:37.560 ,4,0,0.,12.0,0.,12.0,0.,12.0,0.,12.0
1981-08-26 19:07:49.560 ,4,0,0.,12.0,0.,12.0,0.,12.0,0.,12.0
1981-08-26 19:08:01.560 ,5,1,0.,12.0,0.,12.0,0.,12.0,0.,12.0
1981-08-26 19:08:13.560 ,5,1,0.,12.0,0.,12.0,0.,12.0,0.,12.0
1981-08-26 19:08:25.560 ,5,0,0.,12.0,0.,12.0,0.,12.0,0.,12.0
1981-08-26 19:08:37.560 ,5,0,0.,12.0,0.,12.0,0.,12.0,0.,12.0
1981-08-26 19:08:49.560 ,6,1,0.,12.0,0.,12.0,0.,12.0,0.,12.0
1981-08-26 19:09:01.560 ,6,1,0.,12.0,0.,12.0,0.,12.0,0.,12.0
1981-08-26 19:09:13.560 ,6,0,0.,12.0,0.,12.0,0.,12.0,0.,12.0
1981-08-26 19:09:25.560 ,6,0,0.,12.0,0.,12.0,0.,12.0,0.,12.0
1981-08-26 19:09:37.560 ,7,1,0.,12.0,0.,12.0,0.,12.0,0.,12.0
1981-08-26 19:09:49.560 ,7,1,0.,12.0,0.,12.0,0.,12.0,0.,12.0
1981-08-26 19:10:01.560 ,7,0,0.,12.0,0.,12.0,0.,12.0,0.,12.0
1981-08-26 19:10:13.560 ,7,0,0.,12.0,0.,12.0,0.,12.0,0.,12.0
1981-08-26 19:10:25.550 ,7,1,0.,12.0,0.,12.0,0.,12.0,0.,12.0
1981-08-26 19:10:37.550 ,7,1,0.,12.0,0.,12.0,0.,12.0,0.,12.0
1981-08-26 19:10:49.550 ,7,0,0.,12.0,0.,12.0,0.,12.0,0.,12.0
1981-08-26 19:11:01.550 ,7,0,0.,12.0,0.,12.0,0.,12.0,0.,12.0
1981-08-26 19:11:13.550 ,6,1,0.,12.0,0.,12.0,0.,12.0,0.,12.0
1981-08-26 19:11:25.550 ,6,1,0.,12.0,0.,12.0,0.,12.0,0.,12.0
1981-08-26 19:11:37.550 ,6,0,0.,12.0,0.,12.0,0.,12.0,0.,12.0
1981-08-26 19:11:49.550 ,6,0,0.,12.0,0.,12.0,0.,12.0,0.,12.0
1981-08-26 19:12:01.550 ,5,1,0.,12.0,0.,12.0,0.,12.0,0.,12.0
1981-08-26 19:12:13.550 ,5,1,0.,12.0,0.,12.0,0.,12.0,0.,12.0
1981-08-26 19:12:25.550 ,5,0,0.,12.0,0.,12.0,0.,12.0,0.,12.0
1981-08-26 19:12:37.550 ,5,0,0.,12.0,0.,12.0,0.,12.0,0.,12.0
1981-08-26 19:12:49.550 ,4,1,0.,12.0,0.,12.0,0.,12.0,0.,12.0
1981-08-26 19:13:01.550 ,4,1,0.,12.0,0.,12.0,0.,12.0,0.,12.0
1981-08-26 19:13:13.550 ,4,0,0.,12.0,0.,12.0,0.,12.0,0.,12.0
1981-08-26 19:13:25.550 ,4,0,0.,12.0,0.,12.0,0.,12.0,0.,12.0
1981-08-26 19:13:37.550 ,3,1,0.,12.0,0.,12.0,0.,12.0,0.,12.0
1981-08-26 19:13:49.550 ,3,1,0.,12.0,0.,12.0,0.,12.0,0.,12.0
1981-08-26 19:14:01.550 ,3,0,0.,12.0,0.,12.0,0.,12.0,0.,12.0
1981-08-26 19:14:13.550 ,3,0,0.,12.0,0.,12.0,0.,12.0,0.,12.0
1981-08-26 19:14:25.550 ,2,1,0.,12.0,0.,12.0,0.,12.0,0.,12.0
1981-08-26 19:14:37.550 ,2,1,0.,12.0,0.,12.0,0.,12.0,0.,12.0
1981-08-26 19:14:49.550 ,2,0,0.,12.0,0.,12.0,0.,12.0,0.,12.0
1981-08-26 19:15:01.550 ,2,0,0.,12.0,0.,12.0,0.,12.0,0.,12.0
1981-08-26 19:15:13.550 ,1,1,0.,12.0,0.,12.0,0.,12.0,0.,12.0
1981-08-26 19:15:25.550 ,1,1,0.,12.0,0.,12.0,0.,12.0,0.,12.0
1981-08-26 19:15:37.550 ,1,0,0.,12.0,0.,12.0,0.,12.0,0.,12.0
1981-08-26 19:15:49.550 ,1,0,0.,12.0,0.,12.0,0.,12.0,0.,12.0
1981-08-26 19:16:01.550 ,0,1,0.,12.0,0.,12.0,0.,12.0,0.,12.0
1981-08-26 19:16:13.550 ,0,1,0.,12.0,0.,12.0,0.,12.0,0.,12.0
1981-08-26 19:16:25.550 ,0,0,0.,12.0,0.,12.0,0.,12.0,0.,12.0
1981-08-26 19:16:37.550 ,0,0,0.,12.0,0.,12.0,0.,12.0,0.,12.0
1981-08-26 19:16:49.550 ,0,1,0.,12.0,0.,12.0,0.,12.0,0.,12.0
1981-08-26 19:17:01.550 ,0,1,0.,12.0,0.,12.0,0.,12.0,0.,12.0
1981-08-26 19:17:13.550 ,0,0,0.,12.0,0.,12.0,0.,12.0,0.,12.0
1981-08-26 19:17:25.550 ,0,0,0.,12.0,0.,12.0,0.,12.0,0.,12.0
1981-08-26 19:17:37.550 ,1,1,0.,12.0,0.,12.0,0.,12.0,0.,12.0
1981-08-26 19:17:49.550 ,1,1,0.,12.0,0.,12.0,0.,12.0,0.,12.0
1981-08-26 19:18:01.550 ,1,0,0.,12.0,0.,12.0,0.,12.0,0.,12.0
1981-08-26 19:18:13.550 ,1,0,0.,12.0,0.,12.0,0.,12.0,0.,12.0
1981-08-26 19:18:25.550 ,2,1,0.,12.0,0.,12.0,0.,12.0,0.,12.0
1981-08-26 19:18:37.550 ,2,1,0.,12.0,0.,12.0,0.,12.0,0.,12.0
1981-08-26 19:18:49.550 ,2,0,0.,12.0,0.,12.0,0.,12.0,0.,12.0
1981-08-26 19:19:01.550 ,2,0,0.,12.0,0.,12.0,0.,12.0,0.,12.0
1981-08-26 19:19:13.550 ,3,1,0.,12.0,0.,12.0,0.,12.0,0.,12.0
1981-08-26 19:19:25.550 ,3,1,0.,12.0,0.,12.0,0.,12.0,0.,12.0
1981-08-26 19:19:37.550 ,3,0,0.,12.0,0.,12.0,0.,12.0,0.,12.0
1981-08-26 19:19:49.550 ,3,0,0.,12.0,0.,12.0,0.,12.0,0.,12.0
1981-08-26 19:20:01.550 ,4,1,0.,12.0,0.,12.0,0.,12.0,0.,12.0
1981-08-26 19:20:13.550 ,4,1,0.,12.0,0.,12.0,0.,12.0,0.,12.0
1981-08-26 19:20:25.550 ,4,0,0.,12.0,0.,12.0,0.,12.0,0.,12.0
1981-08-26 19:20:37.550 ,4,0,0.,12.0,0.,12.0,0.,12.0,0.,12.0
1981-08-26 19:20:49.550 ,5,1,0.,12.0,0.,12.0,0.,12.0,0.,12.0
1981-08-26 19:21:01.550 ,5,1,0.,12.0,0.,12.0,0.,12.0,0.,12.0
1981-08-26 19:21:13.550 ,5,0,0.,12.0,0.,12.0,0.,12.0,0.,12.0